CZ-3B DEB, 40843

Orbit data source: Space-Track

CZ-3B DEB, 40843 is space debris in HEO originally from a launch on Mon, 19 Dec 2011 UTC launched from the Xichang Space Center, China (XSC). Debris objects in space refer to the collection of defunct objects orbiting the Earth. Examples of debris include non-operational satellites, rocket bodies, and fragments generated from explosions, collisions, or faulty payload assembly.

Loading next visibility...
Identifier
40843, 2011-077Y
Orbit
HEO
Last TLE update
1 week ago
Origin
Manufacturer
CALT
Mission
Spacecraft
Bus & Motor
Unknown
Mass
Unknown
Launch date (UTC)
2011-12-19 (14 years ago)
Launch vehicle
Unknown
Launch site
Xichang Space Center, China (XSC)
Object type
Payload
Rocket body
Debris
Shape & HBR
Unknown
Radar Cross Section
Medium (>0.1 m² and <1 m²)

Expand to show TLE details & history

TLE from 1 week ago
0 CZ-3B DEB
1 40843U 11077Y   25192.51563930  .00000584  00000-0  30782-2 0  9995
2 40843  22.2142 251.7023 7284295 348.1475   1.5053  2.17150808 86799
Epoch: 2025-07-11T12:22Z
TLE epoch observation values (Epoch: 2025-07-11T12:22:31.235Z)
Latitude
0.00006°
Longitude
136.45569°
Altitude
523.472 km
Speed
9.984 km/s
True Right ascension
16h 47m 00s
True Declination
0° 00' 00"
Sunlit
Object was in full shadow at epoch
Visualization orbit readout
Latitude
12.98552°
Longitude
-80.56755°
Altitude
26,045.124 km
Speed
2.96 km/s
Apparent Right ascension
02h 02m 52s
Apparent Declination
5° 06' 14"
Sunlit
Object is in daylight
Visualization observer readout
Local Sidereal Time
12:15:33
Azimuth
324.858° NNW
Elevation
-38.656°
Doppler factor
1
Orbital elements
Apogee altitude
37,168.349 km
Perigee altitude
463.878 km
Semi-major axis
25,194.251 km
Eccentricity
0.72843
Inclination
22.2142°
RAAN
251.7023°
Arg. of periapsis
348.1475°
True anomaly
13.8687°
Mean anomaly
1.5053°
Eccentric anomaly
5.52005°
Mean motion
0.54274 °/min
Orbital period
663.3 mins
BSTAR
0.0030782
Loading maneuver chart data...
Loading SW <> Apogee altitude chart data...
Loading historical data...
Loading historical data...
Loading historical data...
Loading historical data...
Loading historical data...
Loading historical data...
Loading historical data...
|